STARLINK-35299 (66072 NORAD) Tracking and Keplerian Element Data

This shows tracking and keplerian element data for the satellite.

Feedback or suggestion? Click here.




ElementValue
Catalog66072
NameSTARLINK-35299
Epoch Orbit1073
Epoch Day354.09787615
Epoch Year2025
RAAN255.1062
Inclination53.1585
Eccentricity0.0001553
Argument of Perigee111.4898
Mean Anonmoly248.6268
Mean Motion15.30221807
Decay Rate0.00028251
L11 66072U 25235Q 25354.09787615 .00028251 00000+0 96168-3 0 9990
L22 66072 53.1585 255.1062 0001553 111.4898 248.6268 15.30221807 10733



Live tracking and technical data element details for STARLINK-35299 (NORAD 66072). STARLINK-35299 can be tracked NOW for your location showing map with azimuth and elevation plus other details from your city location.







IsCatalogInMostPopularTable: catalog: 66072, numindb: 16
Update: records affected: 1



GetName: 66072 STARLINK-35299

Hit Count: updated at: Thu, 16 Apr 2026 05:52:34 GMT